Retour au catalogue

FFLY-3

ActifScienceSSO
NORAD 65319·PAYLOAD·🇺🇸 United States

Lancé Aug 26, 2025 depuis Vandenberg Space Force Base

Loading…

Prochains Passages (prochaines 24 heures)

TLE

FraisSource: Space-Track

Époque: Sep 14, 2026, 13:05 UTC

1 65319U 25188E   26257.54547567  .00001014  00000-0  10328-3 0  9996
2 65319  97.7254 331.0790 0008418 158.2177 201.9402 14.92857039 57249

Suivez FFLY-3 en temps réel avec AllMySat

Download on the App Store